Weather reports worldwide

Advertisment
Koivu-Mankkaa, Finland (2985): temperature & dewpoint: 15.10.2017 08:00:00 - 21.10.2017 08:00:00 (EEST)Koivu-Mankkaa, Finland (2985): wind speed: 15.10.2017 08:00:00 - 21.10.2017 08:00:00 (EEST)Koivu-Mankkaa, Finland (2985): wind direction: 15.10.2017 08:00:00 - 21.10.2017 08:00:00 (EEST)Koivu-Mankkaa, Finland (2985): reduced air pressure: 15.10.2017 08:00:00 - 21.10.2017 08:00:00 (EEST)Koivu-Mankkaa, Finland (2985): visibility: 15.10.2017 08:00:00 - 21.10.2017 08:00:00 (EEST)Koivu-Mankkaa, Finland (2985): precipitation: 15.10.2017 08:00:00 - 21.10.2017 08:00:00 (EEST)
Date & Time tt [°C] td [°C] ff [km/h] ff [kn] dd ppp [hPa] vv [km] rr [mm]
21.10.2017 08:00:00 - - - - - - - -
21.10.2017 07:00:00 -3,8 -4,3 7 4 N 1025,0 29 0,0
21.10.2017 06:00:00 -3,7 -4,1 6 4 NNE 1024,9 27 0,0
21.10.2017 05:00:00 -3,2 -3,6 5 3 NNE 1024,9 20 0,0
21.10.2017 04:00:00 -2,7 -2,9 7 4 N 1025,0 10 0,0
21.10.2017 03:00:00 -2,2 -2,4 5 3 NNW 1025,1 0,7 0,0
21.10.2017 02:00:00 -2,1 -2,4 6 3 N 1025,0 2,7 0,0
21.10.2017 01:00:00 -2,5 -2,9 6 4 N 1024,9 17 0,0
21.10.2017 00:00:00 -2,5 -2,7 7 4 NNW 1024,9 16 0,0
20.10.2017 23:00:00 -1,9 -2,0 6 3 N 1025,0 15 0,0
20.10.2017 22:00:00 -1,6 -1,8 6 3 N 1024,9 13 0,0
20.10.2017 21:00:00 -1,0 -1,2 5 3 NNE 1024,8 15 0,0
20.10.2017 20:00:00 -0,2 -0,4 6 3 N 1024,5 16 0,0
20.10.2017 19:00:00 1,1 0,7 8 4 N 1024,4 34 0,0
20.10.2017 18:00:00 2,8 1,7 6 3 N 1024,1 44 0,0
20.10.2017 17:00:00 3,9 1,7 4 2 W 1023,9 44 0,0
20.10.2017 16:00:00 5,4 1,9 6 3 N 1023,9 46 0,0
20.10.2017 15:00:00 6,8 2,7 5 3 N 1024,0 42 0,0
20.10.2017 14:00:00 6,3 2,3 10 5 N 1024,0 42 0,0
20.10.2017 13:00:00 5,8 2,6 8 5 N 1024,1 48 0,0
20.10.2017 12:00:00 4,6 2,5 8 4 N 1023,9 37 0,0
20.10.2017 11:00:00 1,9 1,4 5 3 NNW 1023,7 31 0,0
20.10.2017 10:00:00 -0,9 -1,1 6 4 WNW 1023,3 23 0,0
20.10.2017 09:00:00 -2,4 -2,7 5 3 WNW 1023,0 25 0,0
20.10.2017 08:00:00 -2,3 -2,6 4 2 NW 1022,8 33 0,0
20.10.2017 07:00:00 -1,5 -1,6 7 4 NW 1022,6 13 0,0
20.10.2017 06:00:00 -0,6 -0,7 9 5 WNW 1022,4 18 0,0
20.10.2017 05:00:00 -0,6 -0,7 8 4 NW 1022,2 12 0,0
20.10.2017 04:00:00 -0,3 -0,4 9 5 WNW 1022,0 20 0,0
20.10.2017 03:00:00 0,0 -0,1 10 5 WNW 1021,8 23 0,0
20.10.2017 02:00:00 -0,4 -0,6 8 5 WNW 1021,5 22 0,0
20.10.2017 01:00:00 0,1 -0,1 8 4 WNW 1021,5 28 0,0
20.10.2017 00:00:00 -0,2 -0,4 10 5 WNW 1021,4 35 0,0
19.10.2017 23:00:00 0,3 0,0 8 5 WNW 1021,2 30 0,0
19.10.2017 22:00:00 1,0 0,5 9 5 NW 1020,8 34 0,0
19.10.2017 21:00:00 1,7 1,3 11 6 NNW 1020,4 34 0,0
19.10.2017 20:00:00 2,1 1,6 12 7 NW 1019,9 42 0,0
19.10.2017 19:00:00 3,4 2,2 10 6 WNW 1019,2 47 0,0
19.10.2017 18:00:00 6,8 2,1 11 6 NW 1018,7 50 0,0
19.10.2017 17:00:00 7,7 3,0 13 7 NNW 1018,2 48 0,0
19.10.2017 16:00:00 8,1 3,0 19 10 WNW 1017,7 48 0,0
19.10.2017 15:00:00 8,9 2,7 22 12 W 1017,4 39 0,0
19.10.2017 14:00:00 9,4 3,8 18 10 W 1017,0 45 0,0
19.10.2017 13:00:00 8,9 4,7 16 9 WNW 1016,9 41 0,0
19.10.2017 12:00:00 7,5 4,2 13 7 W 1016,6 48 0,0
19.10.2017 11:00:00 5,8 3,3 9 5 W 1016,3 35 0,0
19.10.2017 10:00:00 2,6 2,5 7 4 W 1015,7 38 0,0
19.10.2017 09:00:00 1,2 1,1 4 2 WNW 1015,1 9 0,0
19.10.2017 08:00:00 1,5 1,2 4 2 WNW 1014,6 9 0,0
19.10.2017 07:00:00 3,2 2,4 9 5 WNW 1014,1 37 0,0
19.10.2017 06:00:00 3,4 3,1 11 6 WNW 1013,5 42 0,0
19.10.2017 05:00:00 3,2 2,8 10 5 W 1012,9 39 0,0
19.10.2017 04:00:00 4,9 3,6 10 5 W 1012,5 45 0,0
19.10.2017 03:00:00 5,3 4,1 11 6 W 1012,1 50 0,0
19.10.2017 02:00:00 5,2 4,0 11 6 WNW 1011,4 43 0,0
19.10.2017 01:00:00 5,6 4,0 13 7 W 1010,7 47 0,0
19.10.2017 00:00:00 6,1 4,1 14 7 W 1010,1 49 0,0
18.10.2017 23:00:00 6,9 4,2 14 8 WNW 1009,5 45 0,0
18.10.2017 22:00:00 7,5 4,0 18 10 W 1008,9 45 0,0
18.10.2017 21:00:00 7,8 3,8 16 9 W 1008,4 46 0,0
18.10.2017 20:00:00 8,4 3,6 20 11 W 1008,1 50 0,0
18.10.2017 19:00:00 8,4 3,1 21 11 W 1007,6 46 0,0
18.10.2017 18:00:00 8,4 3,5 18 10 W 1006,9 49 0,0
18.10.2017 17:00:00 8,7 3,5 16 8 W 1006,4 38 0,0
18.10.2017 16:00:00 8,9 3,4 19 10 W 1005,9 42 0,0
18.10.2017 15:00:00 8,5 3,0 24 13 W 1005,4 41 0,0
18.10.2017 14:00:00 8,2 2,3 24 13 WNW 1004,8 44 0,0
18.10.2017 13:00:00 7,6 3,5 22 12 NW 1004,3 47 0,0
18.10.2017 12:00:00 7,0 4,7 20 11 NW 1003,3 13 0,0
18.10.2017 11:00:00 7,6 4,7 24 13 NW 1002,0 50 0,0
18.10.2017 10:00:00 7,6 5,3 23 12 NW 1000,4 50 0,0
18.10.2017 09:00:00 8,7 6,3 23 13 NW 999,0 50 0,0
18.10.2017 08:00:00 9,4 7,5 22 12 WNW 997,9 44 0,0
18.10.2017 07:00:00 10,3 9,3 16 9 W 997,4 25 0,2
18.10.2017 06:00:00 10,7 9,8 16 9 WSW 997,3 21 0,4
18.10.2017 05:00:00 10,6 9,9 17 9 WSW 997,4 16 0,1
18.10.2017 04:00:00 11,1 9,5 19 10 SW 997,7 23 0,0
18.10.2017 03:00:00 11,2 9,8 22 12 WSW 998,5 11 0,0
18.10.2017 02:00:00 11,1 9,7 22 12 SW 999,0 18 0,0
18.10.2017 01:00:00 11,4 9,6 21 11 WSW 999,3 17 0,0
18.10.2017 00:00:00 11,7 9,9 21 11 WSW 999,6 14 0,0
17.10.2017 23:00:00 11,9 10,4 20 11 SW 999,9 11 0,0
17.10.2017 22:00:00 11,9 10,8 18 10 SW 1000,2 8 0,0
17.10.2017 21:00:00 11,7 11,0 15 8 SW 1000,6 6 0,0
17.10.2017 20:00:00 11,8 11,1 16 8 SW 1001,5 10 0,0
17.10.2017 19:00:00 11,2 10,9 16 9 SW 1002,1 10 0,7
17.10.2017 18:00:00 10,3 10,0 17 9 S 1003,6 2,8 0,3
17.10.2017 17:00:00 9,4 8,6 14 7 SSE 1005,6 8 0,0
17.10.2017 16:00:00 9,2 8,2 12 7 S 1007,8 33 0,0
17.10.2017 15:00:00 8,5 6,6 7 4 S 1009,4 24 0,0
17.10.2017 14:00:00 8,4 5,5 6 4 SSW 1011,1 36 0,0
17.10.2017 13:00:00 8,8 4,5 9 5 W 1012,5 46 0,0
17.10.2017 12:00:00 8,6 4,6 11 6 W 1012,8 46 0,0
17.10.2017 11:00:00 7,5 4,4 16 9 WSW 1012,9 45 0,0
17.10.2017 10:00:00 6,6 4,1 14 7 W 1013,6 40 0,0
17.10.2017 09:00:00 5,7 3,3 14 7 WSW 1013,6 43 0,0
17.10.2017 08:00:00 5,8 3,2 14 8 W 1013,9 41 0,0
17.10.2017 07:00:00 5,7 3,0 16 9 W 1013,8 46 0,0
17.10.2017 06:00:00 5,5 2,8 14 8 W 1013,7 40 -
17.10.2017 05:00:00 5,7 2,9 15 8 W 1013,5 46 0,0
17.10.2017 04:00:00 6,4 3,0 14 7 W 1013,2 38 0,0
17.10.2017 03:00:00 7,0 3,1 16 9 W 1012,8 39 0,0
17.10.2017 02:00:00 7,5 3,2 18 10 W 1012,4 44 0,0
17.10.2017 01:00:00 7,6 3,4 19 10 WNW 1012,1 42 0,0
17.10.2017 00:00:00 7,9 3,5 16 9 WNW 1011,5 44 0,0
16.10.2017 23:00:00 8,6 3,6 20 11 WNW 1010,9 47 0,0
16.10.2017 22:00:00 9,1 4,3 22 12 WNW 1010,2 48 0,0
16.10.2017 21:00:00 10,1 4,8 25 13 WNW 1009,2 50 0,0
16.10.2017 20:00:00 11,3 5,7 24 13 WNW 1008,3 47 0,0
16.10.2017 19:00:00 12,5 6,9 24 13 WNW 1007,3 46 0,0
16.10.2017 18:00:00 14,0 9,8 19 11 WNW 1005,8 33 0,0
16.10.2017 17:00:00 14,7 11,2 17 9 W 1004,7 28 -
16.10.2017 16:00:00 14,6 11,8 17 9 WSW 1004,3 23 0,0
16.10.2017 15:00:00 14,1 12,2 17 9 SW 1004,0 15 0,0
16.10.2017 14:00:00 13,2 11,8 21 11 SW 1004,3 12 0,1
16.10.2017 13:00:00 12,8 11,8 22 12 SW 1004,6 11 0,1
16.10.2017 12:00:00 12,8 11,6 26 14 SW 1004,9 6 0,0
16.10.2017 11:00:00 13,0 11,3 23 12 SW 1005,2 16 0,0
16.10.2017 10:00:00 12,5 11,3 21 11 SW 1005,8 14 0,0
16.10.2017 09:00:00 12,3 11,3 22 12 SW 1006,5 15 0,0
16.10.2017 08:00:00 11,2 10,5 18 10 SSW 1007,2 13 0,0
16.10.2017 07:00:00 10,5 9,8 19 10 S 1008,8 15 0,0
16.10.2017 06:00:00 9,9 9,2 16 9 S 1010,1 20 0,0
16.10.2017 05:00:00 9,0 8,8 16 9 S 1011,2 19 0,3
16.10.2017 04:00:00 8,7 8,6 11 6 S 1012,6 3,7 2,5
16.10.2017 03:00:00 8,1 7,9 8 4 SSW 1013,5 9 0,9
16.10.2017 02:00:00 6,6 6,4 9 5 SW 1014,4 12 0,1
16.10.2017 01:00:00 5,6 5,4 10 5 SSW 1014,7 22 0,0
16.10.2017 00:00:00 5,5 5,3 9 5 SW 1015,1 17 0,0
15.10.2017 23:00:00 5,3 5,1 10 6 WSW 1015,4 18 0,0
15.10.2017 22:00:00 5,6 5,3 9 5 WSW 1015,4 28 0,0
15.10.2017 21:00:00 6,3 4,9 11 6 W 1015,2 34 0,0
15.10.2017 20:00:00 5,4 5,1 13 7 W 1015,3 33 0,0
15.10.2017 19:00:00 7,2 6,1 7 4 W 1015,2 36 0,0
15.10.2017 18:00:00 11,1 6,1 14 7 WNW 1014,7 43 0,0
15.10.2017 17:00:00 12,1 6,2 14 8 WNW 1014,0 47 0,0
15.10.2017 16:00:00 12,2 6,4 19 10 WNW 1013,8 46 0,0
15.10.2017 15:00:00 11,3 6,7 20 11 WNW 1013,2 43 0,0
15.10.2017 14:00:00 10,1 6,9 14 7 WNW 1012,6 41 0,0
15.10.2017 13:00:00 8,5 6,8 16 9 WNW 1012,5 36 0,0
15.10.2017 12:00:00 7,8 6,1 11 6 W 1011,9 31 0,0
15.10.2017 11:00:00 7,6 5,9 16 9 WSW 1011,4 29 0,0
15.10.2017 10:00:00 7,1 5,5 10 5 W 1010,6 26 0,0
15.10.2017 09:00:00 6,7 5,3 11 6 WNW 1009,8 33 0,0
15.10.2017 08:00:00 6,9 5,2 18 10 NW 1009,1 39 0,0

tt = temperature
td = dewpoint
ff = wind speed
dd = wind direction
ppp = reduced air pressure
vv = visibility
rr = precipitation

Next stations